QPF
0.00 0.00 0.00 0.00 0.00 0.00 0.00 0.00 0.00 0.00 0.00 0.00 0.00 0.00 0.01 0.01 0.01 0.02 0.03 0.03 0.05 0.07 0.10 0.08 0.07 0.06 0.05 0.05 0.04 0.05 0.05 0.03 0.04 0.04 0.04 0.03 0.03 0.03 0.03 0.03 0.03 0.03 0.03 0.03
0.00 0.00 0.00 0.00 0.00 0.00 0.00 0.00 0.00 0.00 0.00 0.00 0.00 0.00 0.01 0.01 0.01 0.01 0.02 0.03 0.04 0.06 0.09 0.13 0.11 0.08 0.08 0.07 0.04 0.04 0.04 0.03 0.03 0.02 0.02 0.02 0.02 0.04 0.03 0.02 0.02 0.03 0.02 0.02
0.00 0.00 0.00 0.00 0.00 0.00 0.00 0.00 0.00 0.00 0.00 0.00 0.01 0.01 0.01 0.01 0.01 0.01 0.02 0.03 0.04 0.05 0.06 0.10 0.12 0.13 0.09 0.06 0.04 0.03 0.03 0.03 0.02 0.03 0.03 0.02 0.02 0.02 0.02 0.02 0.02 0.02 0.02 0.02
0.00 0.00 0.00 0.00 0.00 0.00 0.00 0.00 0.00 0.00 0.00 0.00 0.01 0.01 0.01 0.01 0.01 0.01 0.01 0.02 0.03 0.03 0.05 0.06 0.07 0.09 0.08 0.06 0.05 0.02 0.02 0.02 0.03 0.03 0.03 0.02 0.02 0.02 0.03 0.02 0.01 0.01 0.01 0.01
0.00 0.00 0.00 0.00 0.00 0.00 0.00 0.00 0.00 0.00 0.00 0.00 0.00 0.01 0.01 0.01 0.01 0.01 0.01 0.01 0.03 0.02 0.02 0.03 0.03 0.04 0.05 0.05 0.04 0.03 0.03 0.03 0.04 0.04 0.04 0.04 0.03 0.03 0.03 0.02 0.01 0.01 0.01 0.01
0.00 0.00 0.00 0.00 0.00 0.00 0.00 0.00 0.00 0.00 0.00 0.00 0.00 0.00 0.01 0.01 0.00 0.00 0.00 0.01 0.01 0.01 0.01 0.01 0.02 0.02 0.02 0.02 0.03 0.03 0.03 0.04 0.03 0.03 0.03 0.04 0.04 0.04 0.03 0.02 0.02 0.01 0.02 0.02
0.00 0.00 0.00 0.00 0.00 0.00 0.00 0.00 0.00 0.01 0.01 0.00 0.00 0.00 0.00 0.00 0.00 0.00 0.00 0.01 0.01 0.01 0.01 0.01 0.02 0.02 0.02 0.02 0.02 0.02 0.02 0.03 0.03 0.03 0.03 0.03 0.03 0.04 0.04 0.03 0.02 0.02 0.01 0.01
0.00 0.00 0.00 0.00 0.00 0.00 0.00 0.00 0.00 0.01 0.00 0.00 0.00 0.00 0.00 0.00 0.00 0.00 0.00 0.01 0.01 0.01 0.01 0.02 0.02 0.02 0.03 0.02 0.02 0.03 0.03 0.03 0.03 0.03 0.02 0.02 0.02 0.02 0.03 0.03 0.02 0.01 0.01 0.01
0.00 0.00 0.00 0.00 0.00 0.00 0.00 0.00 0.00 0.00 0.00 0.00 0.00 0.00 0.00 0.00 0.00 0.00 0.01 0.01 0.01 0.02 0.02 0.03 0.03 0.03 0.03 0.03 0.03 0.03 0.03 0.03 0.03 0.02 0.01 0.01 0.02 0.03 0.03 0.04 0.04 0.03 0.02 0.01
0.00 0.00 0.00 0.00 0.00 0.00 0.00 0.00 0.00 0.00 0.00 0.00 0.00 0.01 0.01 0.00 0.00 0.00 0.01 0.01 0.01 0.01 0.01 0.02 0.03 0.04 0.04 0.03 0.04 0.03 0.02 0.02 0.01 0.01 0.01 0.01 0.01 0.02 0.03 0.02 0.02 0.02 0.02 0.01
0.00 0.00 0.00 0.00 0.00 0.00 0.00 0.00 0.00 0.00 0.00 0.00 0.01 0.01 0.00 0.00 0.00 0.01 0.01 0.01 0.01 0.01 0.01 0.01 0.02 0.03 0.03 0.03 0.04 0.03 0.02 0.01 0.01 0.01 0.01 0.01 0.01 0.01 0.01 0.02 0.01 0.01 0.01 0.01
0.00 0.00 0.00 0.00 0.00 0.00 0.00 0.00 0.01 0.01 0.00 0.00 0.01 0.01 0.00 0.00 0.01 0.01 0.01 0.01 0.01 0.01 0.01 0.02 0.02 0.04 0.04 0.03 0.03 0.03 0.02 0.02 0.01 0.01 0.01 0.01 0.01 0.01 0.01 0.01 0.01 0.01 0.01 0.01
0.00 0.00 0.00 0.00 0.00 0.00 0.01 0.01 0.01 0.01 0.01 0.01 0.01 0.01 0.01 0.01 0.01 0.01 0.01 0.02 0.02 0.02 0.03 0.03 0.03 0.04 0.04 0.02 0.02 0.01 0.01 0.01 0.01 0.01 0.01 0.01 0.01 0.01 0.01 0.00 0.01 0.01 0.01 0.01
0.00 0.00 0.00 0.00 0.00 0.00 0.00 0.01 0.01 0.01 0.01 0.01 0.01 0.02 0.01 0.01 0.01 0.01 0.01 0.01 0.02 0.03 0.04 0.03 0.03 0.03 0.03 0.02 0.01 0.01 0.02 0.02 0.01 0.01 0.01 0.01 0.01 0.01 0.01 0.01 0.01 0.01 0.01 0.01
0.00 0.00 0.00 0.00 0.00 0.00 0.00 0.00 0.00 0.00 0.01 0.01 0.01 0.01 0.01 0.01 0.01 0.01 0.01 0.02 0.02 0.02 0.03 0.03 0.03 0.03 0.03 0.03 0.04 0.03 0.02 0.02 0.02 0.01 0.01 0.01 0.01 0.01 0.01 0.01 0.01 0.02 0.02 0.02
0.00 0.00 0.00 0.00 0.00 0.00 0.00 0.01 0.01 0.00 0.00 0.01 0.02 0.01 0.01 0.01 0.01 0.01 0.01 0.01 0.01 0.01 0.02 0.02 0.03 0.04 0.05 0.05 0.05 0.06 0.05 0.04 0.03 0.02 0.02 0.01 0.01 0.01 0.01 0.01 0.02 0.02 0.02 0.03
0.00 0.00 0.01 0.00 0.00 0.01 0.01 0.01 0.02 0.01 0.01 0.01 0.02 0.02 0.01 0.01 0.00 0.00 0.01 0.01 0.01 0.01 0.01 0.01 0.03 0.05 0.07 0.06 0.06 0.05 0.04 0.03 0.03 0.03 0.03 0.02 0.01 0.01 0.01 0.01 0.02 0.03 0.04 0.03
0.00 0.01 0.01 0.00 0.01 0.01 0.02 0.01 0.01 0.01 0.02 0.02 0.01 0.01 0.01 0.01 0.01 0.01 0.01 0.01 0.01 0.01 0.02 0.03 0.04 0.05 0.06 0.08 0.07 0.05 0.03 0.02 0.02 0.03 0.04 0.03 0.03 0.02 0.01 0.02 0.03 0.04 0.04 0.03
0.00 0.02 0.03 0.02 0.01 0.01 0.01 0.01 0.01 0.01 0.02 0.01 0.01 0.01 0.00 0.00 0.01 0.02 0.02 0.02 0.03 0.03 0.04 0.04 0.05 0.05 0.05 0.05 0.07 0.07 0.05 0.03 0.03 0.04 0.04 0.03 0.03 0.03 0.03 0.03 0.03 0.03 0.03 0.03
0.00 0.01 0.02 0.02 0.02 0.02 0.01 0.00 0.00 0.02 0.03 0.01 0.01 0.01 0.01 0.01 0.02 0.02 0.02 0.04 0.03 0.03 0.03 0.04 0.05 0.04 0.04 0.03 0.04 0.07 0.08 0.07 0.05 0.05 0.05 0.04 0.04 0.04 0.03 0.02 0.02 0.02 0.02 0.02
0.01 0.01 0.00 0.01 0.01 0.01 0.01 0.01 0.01 0.03 0.02 0.01 0.01 0.01 0.01 0.02 0.03 0.03 0.02 0.02 0.03 0.04 0.04 0.05 0.06 0.05 0.04 0.04 0.03 0.05 0.07 0.07 0.05 0.05 0.05 0.05 0.04 0.02 0.01 0.02 0.02 0.02 0.01 0.01
0.00 0.00 0.00 0.01 0.01 0.01 0.01 0.01 0.01 0.01 0.01 0.01 0.01 0.01 0.01 0.02 0.01 0.01 0.01 0.02 0.02 0.03 0.04 0.06 0.08 0.08 0.06 0.05 0.03 0.03 0.05 0.06 0.05 0.05 0.06 0.04 0.03 0.01 0.01 0.01 0.01 0.01 0.01 0.01
0.00 0.00 0.00 0.01 0.01 0.01 0.00 0.01 0.01 0.00 0.01 0.01 0.01 0.01 0.01 0.01 0.01 0.01 0.01 0.02 0.01 0.02 0.04 0.05 0.07 0.08 0.08 0.07 0.05 0.03 0.03 0.04 0.04 0.04 0.04 0.03 0.03 0.01 0.01 0.01 0.01 0.01 0.01 0.01
0.00 0.00 0.00 0.00 0.00 0.00 0.00 0.00 0.00 0.00 0.00 0.01 0.01 0.01 0.01 0.01 0.01 0.01 0.01 0.01 0.02 0.02 0.04 0.06 0.07 0.08 0.08 0.08 0.07 0.04 0.03 0.03 0.03 0.04 0.04 0.04 0.03 0.01 0.01 0.01 0.01 0.01 0.01 0.01
0.00 0.00 0.00 0.00 0.00 0.00 0.00 0.00 0.00 0.00 0.00 0.00 0.00 0.01 0.01 0.01 0.01 0.01 0.02 0.02 0.02 0.04 0.06 0.06 0.06 0.06 0.07 0.06 0.06 0.04 0.02 0.02 0.02 0.03 0.03 0.03 0.01 0.01 0.01 0.00 0.00 0.00 0.00 0.00
0.00 0.00 0.00 0.01 0.01 0.01 0.01 0.00 0.00 0.00 0.00 0.00 0.01 0.01 0.01 0.01 0.01 0.01 0.02 0.02 0.03 0.03 0.05 0.07 0.07 0.06 0.06 0.06 0.05 0.03 0.02 0.02 0.01 0.02 0.01 0.01 0.01 0.01 0.00 0.00 0.00 0.00 0.00 0.00
MSLP
1012.52 1012.61 1012.61 1012.53 1012.42 1012.32 1012.27 1012.28 1012.33 1012.41 1012.47 1012.46 1012.36 1012.17 1011.91 1011.64 1011.41 1011.29 1011.33 1011.56 1011.95 1012.48 1013.07 1013.65 1014.17 1014.57 1014.84 1014.99 1015.07 1015.11 1015.16 1015.26 1015.42 1015.64 1015.90 1016.17 1016.42 1016.62 1016.77 1016.88 1016.94 1017.00 1017.06 1017.16
1012.64 1012.68 1012.64 1012.52 1012.40 1012.30 1012.26 1012.29 1012.37 1012.48 1012.54 1012.53 1012.40 1012.14 1011.79 1011.40 1011.04 1010.79 1010.71 1010.83 1011.15 1011.64 1012.24 1012.87 1013.46 1013.95 1014.32 1014.57 1014.72 1014.82 1014.90 1015.01 1015.17 1015.38 1015.62 1015.88 1016.12 1016.33 1016.49 1016.60 1016.68 1016.74 1016.81 1016.90
1012.70 1012.69 1012.59 1012.46 1012.32 1012.23 1012.22 1012.29 1012.41 1012.54 1012.62 1012.59 1012.42 1012.10 1011.65 1011.14 1010.64 1010.26 1010.05 1010.06 1010.31 1010.76 1011.36 1012.04 1012.71 1013.30 1013.78 1014.14 1014.39 1014.55 1014.68 1014.81 1014.97 1015.16 1015.39 1015.64 1015.88 1016.09 1016.27 1016.40 1016.50 1016.59 1016.67 1016.78
1012.69 1012.62 1012.48 1012.32 1012.19 1012.13 1012.15 1012.27 1012.44 1012.61 1012.72 1012.69 1012.49 1012.11 1011.58 1010.96 1010.35 1009.84 1009.51 1009.42 1009.59 1010.01 1010.61 1011.32 1012.06 1012.76 1013.35 1013.81 1014.15 1014.39 1014.57 1014.72 1014.88 1015.06 1015.27 1015.51 1015.74 1015.97 1016.16 1016.33 1016.47 1016.59 1016.71 1016.83
1012.63 1012.49 1012.32 1012.14 1012.02 1011.99 1012.07 1012.25 1012.48 1012.70 1012.84 1012.84 1012.64 1012.23 1011.65 1010.96 1010.27 1009.66 1009.24 1009.07 1009.17 1009.54 1010.14 1010.87 1011.66 1012.43 1013.11 1013.66 1014.08 1014.39 1014.60 1014.78 1014.93 1015.10 1015.30 1015.52 1015.75 1015.99 1016.21 1016.41 1016.59 1016.75 1016.90 1017.05
1012.55 1012.36 1012.14 1011.96 1011.85 1011.86 1011.99 1012.23 1012.53 1012.81 1013.01 1013.04 1012.87 1012.47 1011.89 1011.18 1010.44 1009.78 1009.30 1009.07 1009.12 1009.45 1010.02 1010.76 1011.57 1012.37 1013.11 1013.72 1014.20 1014.55 1014.79 1014.97 1015.13 1015.28 1015.46 1015.67 1015.90 1016.15 1016.39 1016.63 1016.84 1017.04 1017.22 1017.38
1012.50 1012.25 1012.01 1011.82 1011.73 1011.77 1011.94 1012.24 1012.60 1012.95 1013.20 1013.30 1013.18 1012.83 1012.28 1011.60 1010.87 1010.21 1009.71 1009.44 1009.45 1009.74 1010.27 1010.97 1011.77 1012.57 1013.32 1013.95 1014.45 1014.83 1015.09 1015.28 1015.43 1015.57 1015.74 1015.93 1016.16 1016.41 1016.67 1016.93 1017.17 1017.39 1017.59 1017.76
1012.50 1012.22 1011.96 1011.77 1011.69 1011.76 1011.97 1012.31 1012.72 1013.12 1013.43 1013.59 1013.54 1013.26 1012.79 1012.17 1011.50 1010.87 1010.38 1010.11 1010.08 1010.32 1010.79 1011.44 1012.18 1012.94 1013.66 1014.28 1014.78 1015.16 1015.43 1015.63 1015.78 1015.92 1016.08 1016.27 1016.50 1016.75 1017.01 1017.28 1017.53 1017.75 1017.95 1018.11
1012.59 1012.31 1012.05 1011.86 1011.79 1011.87 1012.11 1012.46 1012.89 1013.33 1013.68 1013.90 1013.91 1013.72 1013.34 1012.81 1012.22 1011.66 1011.21 1010.94 1010.89 1011.07 1011.47 1012.03 1012.68 1013.37 1014.03 1014.62 1015.10 1015.48 1015.76 1015.97 1016.14 1016.30 1016.47 1016.66 1016.88 1017.12 1017.37 1017.63 1017.87 1018.08 1018.26 1018.40
1012.78 1012.52 1012.28 1012.11 1012.06 1012.15 1012.38 1012.73 1013.16 1013.59 1013.96 1014.21 1014.28 1014.17 1013.87 1013.44 1012.95 1012.46 1012.06 1011.80 1011.72 1011.85 1012.16 1012.61 1013.17 1013.76 1014.35 1014.89 1015.35 1015.74 1016.04 1016.28 1016.49 1016.68 1016.87 1017.07 1017.29 1017.52 1017.76 1017.98 1018.19 1018.38 1018.52 1018.63
1013.08 1012.87 1012.67 1012.53 1012.50 1012.59 1012.80 1013.13 1013.52 1013.92 1014.28 1014.52 1014.62 1014.56 1014.34 1014.00 1013.59 1013.18 1012.82 1012.58 1012.48 1012.55 1012.77 1013.12 1013.57 1014.07 1014.59 1015.08 1015.54 1015.93 1016.28 1016.58 1016.84 1017.08 1017.31 1017.53 1017.75 1017.96 1018.17 1018.36 1018.52 1018.66 1018.77 1018.84
1013.45 1013.31 1013.17 1013.08 1013.08 1013.17 1013.36 1013.65 1013.98 1014.33 1014.63 1014.84 1014.94 1014.90 1014.74 1014.47 1014.13 1013.79 1013.48 1013.25 1013.13 1013.15 1013.29 1013.55 1013.90 1014.32 1014.77 1015.24 1015.69 1016.13 1016.53 1016.90 1017.23 1017.54 1017.81 1018.06 1018.28 1018.47 1018.64 1018.78 1018.90 1018.99 1019.05 1019.08
1013.86 1013.80 1013.74 1013.72 1013.75 1013.85 1014.02 1014.25 1014.52 1014.79 1015.02 1015.18 1015.25 1015.21 1015.08 1014.86 1014.59 1014.31 1014.05 1013.84 1013.72 1013.70 1013.78 1013.96 1014.24 1014.59 1015.00 1015.44 1015.91 1016.39 1016.85 1017.30 1017.71 1018.07 1018.39 1018.66 1018.88 1019.05 1019.18 1019.28 1019.34 1019.38 1019.40 1019.40
1014.27 1014.30 1014.33 1014.37 1014.45 1014.56 1014.72 1014.90 1015.09 1015.28 1015.43 1015.53 1015.56 1015.52 1015.40 1015.23 1015.03 1014.81 1014.60 1014.44 1014.32 1014.29 1014.33 1014.47 1014.68 1014.99 1015.36 1015.80 1016.29 1016.80 1017.32 1017.82 1018.29 1018.71 1019.07 1019.35 1019.56 1019.70 1019.79 1019.83 1019.84 1019.84 1019.83 1019.81
1014.64 1014.76 1014.88 1014.99 1015.12 1015.25 1015.39 1015.53 1015.65 1015.76 1015.84 1015.89 1015.88 1015.84 1015.76 1015.64 1015.51 1015.37 1015.23 1015.12 1015.05 1015.02 1015.05 1015.16 1015.35 1015.61 1015.96 1016.39 1016.88 1017.41 1017.96 1018.50 1019.00 1019.44 1019.81 1020.08 1020.27 1020.38 1020.42 1020.41 1020.39 1020.35 1020.31 1020.28
1014.95 1015.15 1015.35 1015.53 1015.70 1015.85 1015.98 1016.08 1016.16 1016.21 1016.23 1016.23 1016.22 1016.20 1016.16 1016.12 1016.08 1016.03 1015.99 1015.96 1015.95 1015.96 1016.01 1016.10 1016.27 1016.51 1016.83 1017.23 1017.70 1018.22 1018.76 1019.30 1019.79 1020.23 1020.57 1020.82 1020.97 1021.03 1021.03 1020.98 1020.92 1020.85 1020.80 1020.78
1015.20 1015.47 1015.73 1015.97 1016.17 1016.33 1016.45 1016.52 1016.56 1016.57 1016.56 1016.56 1016.56 1016.58 1016.62 1016.67 1016.75 1016.82 1016.90 1016.97 1017.04 1017.10 1017.18 1017.28 1017.43 1017.64 1017.92 1018.27 1018.70 1019.17 1019.67 1020.16 1020.61 1020.99 1021.29 1021.49 1021.59 1021.60 1021.56 1021.48 1021.39 1021.31 1021.26 1021.23
1015.39 1015.70 1016.01 1016.28 1016.50 1016.67 1016.77 1016.82 1016.84 1016.83 1016.82 1016.83 1016.88 1016.98 1017.11 1017.29 1017.50 1017.71 1017.91 1018.09 1018.25 1018.37 1018.48 1018.59 1018.72 1018.89 1019.12 1019.41 1019.76 1020.15 1020.58 1020.99 1021.36 1021.68 1021.91 1022.04 1022.09 1022.07 1021.99 1021.88 1021.78 1021.69 1021.64 1021.62
1015.52 1015.88 1016.21 1016.49 1016.72 1016.87 1016.96 1016.99 1016.99 1016.99 1017.00 1017.06 1017.18 1017.36 1017.62 1017.93 1018.27 1018.61 1018.94 1019.22 1019.46 1019.64 1019.78 1019.89 1019.99 1020.11 1020.28 1020.49 1020.75 1021.05 1021.38 1021.70 1021.99 1022.22 1022.38 1022.46 1022.47 1022.40 1022.30 1022.19 1022.08 1021.99 1021.95 1021.94
1015.63 1016.00 1016.34 1016.63 1016.84 1016.98 1017.05 1017.07 1017.07 1017.07 1017.12 1017.24 1017.44 1017.73 1018.10 1018.53 1018.99 1019.45 1019.88 1020.25 1020.54 1020.76 1020.91 1021.00 1021.07 1021.15 1021.24 1021.37 1021.55 1021.77 1022.00 1022.24 1022.45 1022.62 1022.72 1022.76 1022.73 1022.65 1022.54 1022.42 1022.32 1022.25 1022.22 1022.22
1015.71 1016.09 1016.43 1016.70 1016.89 1017.01 1017.07 1017.08 1017.09 1017.13 1017.23 1017.41 1017.70 1018.08 1018.55 1019.08 1019.63 1020.16 1020.65 1021.06 1021.38 1021.60 1021.74 1021.81 1021.84 1021.87 1021.91 1021.98 1022.09 1022.24 1022.41 1022.59 1022.75 1022.87 1022.94 1022.96 1022.92 1022.84 1022.74 1022.64 1022.56 1022.51 1022.49 1022.50
1015.77 1016.15 1016.48 1016.73 1016.91 1017.02 1017.06 1017.09 1017.12 1017.20 1017.35 1017.60 1017.96 1018.41 1018.95 1019.54 1020.14 1020.70 1021.21 1021.62 1021.92 1022.12 1022.23 1022.26 1022.26 1022.24 1022.24 1022.28 1022.35 1022.47 1022.61 1022.77 1022.91 1023.02 1023.09 1023.11 1023.09 1023.03 1022.96 1022.88 1022.82 1022.79 1022.79 1022.82
1015.79 1016.17 1016.49 1016.73 1016.90 1017.00 1017.06 1017.11 1017.18 1017.31 1017.52 1017.83 1018.24 1018.75 1019.32 1019.93 1020.52 1021.07 1021.54 1021.91 1022.17 1022.32 1022.38 1022.38 1022.34 1022.31 1022.30 1022.33 1022.40 1022.52 1022.68 1022.84 1023.00 1023.13 1023.22 1023.26 1023.27 1023.24 1023.20 1023.15 1023.12 1023.11 1023.12 1023.16
1015.76 1016.13 1016.44 1016.68 1016.86 1016.98 1017.07 1017.17 1017.29 1017.48 1017.75 1018.11 1018.57 1019.09 1019.67 1020.25 1020.81 1021.30 1021.70 1022.00 1022.18 1022.27 1022.29 1022.25 1022.20 1022.17 1022.17 1022.23 1022.33 1022.49 1022.68 1022.88 1023.07 1023.23 1023.35 1023.43 1023.46 1023.47 1023.45 1023.43 1023.43 1023.43 1023.47 1023.51
1015.66 1016.01 1016.32 1016.58 1016.78 1016.94 1017.09 1017.24 1017.44 1017.69 1018.03 1018.43 1018.91 1019.44 1019.99 1020.53 1021.02 1021.43 1021.74 1021.95 1022.06 1022.09 1022.06 1022.01 1021.96 1021.95 1021.99 1022.09 1022.25 1022.46 1022.70 1022.94 1023.16 1023.36 1023.50 1023.60 1023.66 1023.68 1023.68 1023.68 1023.68 1023.71 1023.75 1023.81
1015.46 1015.80 1016.12 1016.40 1016.64 1016.87 1017.08 1017.32 1017.60 1017.92 1018.32 1018.76 1019.26 1019.77 1020.28 1020.76 1021.17 1021.49 1021.72 1021.84 1021.89 1021.88 1021.83 1021.78 1021.76 1021.79 1021.88 1022.04 1022.25 1022.51 1022.79 1023.06 1023.30 1023.51 1023.65 1023.75 1023.80 1023.82 1023.82 1023.82 1023.83 1023.86 1023.91 1023.98
Thickness
5723 5724 5725 5732 5740 5744 5742 5738 5734 5737 5743 5739 5735 5733 5732 5732 5729 5726 5723 5720 5716 5710 5707 5704 5701 5698 5695 5692 5690 5688 5687 5684 5683 5682 5680 5678 5676 5675 5675 5673 5671 5672 5672 5672
5715 5721 5733 5738 5738 5737 5737 5732 5731 5731 5737 5735 5730 5727 5731 5729 5726 5725 5720 5716 5712 5706 5701 5698 5695 5692 5689 5687 5685 5683 5680 5678 5678 5676 5675 5673 5671 5670 5669 5667 5665 5664 5664 5664
5719 5728 5733 5729 5728 5728 5732 5733 5732 5728 5730 5732 5725 5717 5722 5725 5726 5724 5721 5717 5711 5705 5699 5693 5689 5686 5684 5681 5679 5678 5674 5672 5672 5671 5670 5668 5666 5666 5664 5660 5659 5657 5657 5656
5721 5728 5726 5725 5727 5731 5725 5738 5735 5729 5726 5725 5727 5717 5722 5723 5718 5717 5717 5715 5709 5705 5698 5692 5686 5682 5679 5676 5674 5671 5668 5667 5666 5665 5665 5663 5661 5658 5654 5653 5651 5650 5649 5648
5718 5723 5723 5723 5729 5733 5732 5738 5735 5732 5731 5727 5726 5721 5724 5725 5716 5718 5717 5714 5709 5704 5697 5690 5686 5680 5676 5673 5670 5666 5663 5661 5659 5658 5656 5654 5653 5649 5647 5645 5642 5642 5641 5639
5722 5729 5730 5730 5734 5734 5733 5730 5728 5729 5731 5713 5724 5720 5719 5726 5724 5725 5721 5714 5708 5702 5695 5688 5683 5678 5673 5669 5665 5661 5657 5654 5652 5650 5648 5645 5642 5639 5637 5635 5634 5635 5634 5632
5711 5720 5728 5732 5724 5726 5728 5720 5709 5708 5711 5714 5726 5718 5720 5729 5729 5727 5721 5712 5706 5699 5691 5683 5677 5673 5668 5663 5659 5655 5651 5647 5644 5641 5638 5635 5633 5630 5628 5628 5626 5626 5626 5624
5706 5707 5721 5727 5726 5723 5726 5726 5713 5704 5708 5718 5717 5714 5721 5725 5724 5724 5719 5710 5701 5693 5687 5680 5674 5668 5663 5658 5653 5649 5644 5639 5635 5632 5629 5626 5624 5624 5622 5619 5618 5617 5616 5614
5711 5709 5723 5727 5731 5730 5722 5725 5736 5723 5719 5713 5716 5717 5714 5717 5714 5712 5708 5702 5694 5688 5682 5676 5670 5664 5657 5651 5646 5642 5637 5632 5627 5623 5620 5617 5615 5613 5611 5609 5608 5607 5605 5604
5717 5705 5716 5723 5726 5725 5729 5727 5719 5715 5700 5699 5709 5711 5710 5706 5703 5702 5699 5694 5688 5683 5676 5669 5663 5657 5650 5644 5638 5634 5629 5624 5619 5615 5612 5609 5606 5604 5602 5600 5597 5596 5595 5594
5716 5704 5707 5713 5712 5714 5713 5714 5714 5716 5716 5704 5699 5703 5712 5708 5704 5698 5694 5690 5684 5678 5670 5664 5657 5649 5643 5636 5631 5625 5620 5616 5611 5607 5603 5599 5596 5594 5592 5590 5588 5586 5585 5584
5711 5708 5701 5708 5717 5722 5719 5715 5710 5700 5700 5706 5705 5695 5705 5705 5701 5695 5689 5684 5679 5672 5665 5657 5649 5642 5635 5629 5624 5618 5613 5609 5604 5599 5595 5591 5588 5585 5583 5581 5579 5577 5576 5576
5706 5699 5689 5693 5700 5708 5708 5709 5711 5709 5705 5700 5696 5690 5696 5696 5692 5688 5683 5677 5671 5664 5657 5649 5642 5634 5628 5622 5617 5612 5606 5602 5597 5593 5589 5584 5581 5578 5575 5573 5571 5569 5568 5568
5707 5699 5695 5691 5698 5704 5699 5702 5706 5704 5699 5696 5696 5691 5688 5687 5683 5679 5675 5669 5663 5655 5648 5642 5634 5627 5622 5616 5611 5605 5600 5595 5591 5587 5583 5578 5574 5571 5569 5566 5564 5562 5561 5561
5704 5696 5698 5700 5703 5703 5699 5699 5700 5698 5699 5696 5695 5692 5688 5685 5680 5675 5669 5662 5655 5647 5640 5634 5628 5622 5616 5610 5604 5599 5594 5589 5585 5581 5576 5572 5568 5565 5562 5560 5558 5557 5556 5555
5699 5693 5693 5692 5697 5698 5694 5696 5696 5696 5697 5695 5692 5685 5687 5682 5676 5668 5663 5656 5648 5641 5635 5628 5622 5616 5610 5605 5599 5593 5588 5583 5579 5575 5571 5566 5562 5560 5557 5555 5553 5552 5551 5550
5698 5691 5687 5687 5694 5692 5683 5691 5693 5693 5695 5693 5687 5683 5679 5672 5666 5661 5657 5651 5644 5636 5629 5623 5616 5610 5604 5599 5593 5587 5582 5578 5573 5569 5565 5561 5559 5556 5553 5552 5550 5548 5547 5546
5693 5690 5690 5688 5683 5671 5685 5696 5695 5690 5687 5688 5684 5679 5673 5666 5660 5656 5652 5646 5638 5631 5624 5617 5610 5604 5598 5593 5587 5581 5577 5573 5569 5565 5561 5558 5556 5553 5550 5548 5546 5545 5544 5542
5696 5689 5686 5684 5679 5679 5683 5689 5690 5685 5679 5682 5677 5670 5666 5662 5654 5647 5644 5640 5634 5627 5620 5612 5605 5599 5593 5587 5582 5577 5573 5569 5566 5562 5559 5556 5554 5551 5548 5545 5543 5542 5541 5539
5691 5690 5686 5681 5673 5670 5680 5689 5691 5684 5672 5676 5673 5665 5660 5656 5650 5643 5637 5633 5627 5621 5614 5606 5600 5594 5587 5582 5578 5574 5569 5566 5562 5559 5556 5553 5550 5548 5545 5543 5541 5540 5538 5538
5685 5683 5682 5680 5675 5678 5683 5687 5685 5669 5667 5672 5669 5663 5657 5653 5649 5641 5633 5627 5621 5614 5607 5601 5595 5589 5584 5578 5574 5570 5566 5562 5558 5556 5553 5550 5548 5545 5543 5541 5539 5538 5538 5537
5685 5684 5680 5680 5674 5670 5680 5682 5675 5670 5672 5669 5665 5660 5653 5646 5639 5633 5627 5620 5614 5608 5602 5597 5591 5585 5580 5575 5571 5567 5563 5559 5556 5553 5551 5548 5546 5545 5543 5540 5539 5538 5537 5537
5687 5685 5687 5680 5675 5674 5678 5676 5673 5672 5668 5664 5660 5655 5648 5639 5633 5627 5620 5614 5608 5603 5597 5593 5588 5582 5577 5573 5569 5565 5561 5558 5555 5553 5550 5548 5546 5544 5543 5541 5540 5540 5539 5540
5682 5682 5681 5676 5674 5673 5673 5672 5670 5669 5665 5661 5657 5651 5644 5637 5629 5622 5615 5609 5603 5598 5594 5589 5585 5580 5575 5570 5567 5563 5560 5557 5555 5552 5550 5549 5547 5546 5544 5543 5543 5542 5541 5541
5683 5680 5678 5672 5671 5670 5668 5668 5665 5662 5659 5655 5651 5646 5640 5633 5625 5618 5611 5605 5601 5596 5591 5587 5583 5579 5574 5570 5566 5563 5559 5557 5555 5553 5552 5551 5550 5549 5546 5546 5543 5542 5540 5540
5685 5681 5678 5675 5674 5672 5665 5665 5663 5657 5653 5650 5645 5639 5635 5630 5623 5616 5610 5604 5599 5595 5590 5586 5583 5579 5575 5571 5567 5563 5561 5558 5556 5555 5554 5555 5554 5552 5552 5550 5547 5540 5540 5537